This demonstration page uses our WeatherBlox Daily Observations layout. Learn more.

38.80484, -77.04692

Hourly Observations for September 26, 2016

Temp ( °F °C ) Dew Point ( °F °C ) Humidity (%) Winds ( mph kmh ) Pressure ( in mb ) Visibility ( mi km ) Precip ( " mm )
12:52 am 00:52 Mostly Cloudy 65 18.3 51 10.6 61 61 SE 5 7 30.16 1021 10 16.0934 0 0
1:52 am 01:52 Mostly Cloudy 65 18.3 53 11.7 66 66 SE 3 6 30.17 1022 10 16.0934 0 0
2:52 am 02:52 Mostly Cloudy 65 18.3 54 12.2 68 68 S 8 13 30.16 1021 10 16.0934 0 0
3:52 am 03:52 Cloudy 65 18.3 56 13.3 73 73 SE 7 11 30.15 1021 10 16.0934 0 0
4:52 am 04:52 Cloudy 65 18.3 57 13.9 76 76 SSE 7 11 30.14 1021 10 16.0934 0 0
5:52 am 05:52 Cloudy 66 18.9 59 15 78 78 S 7 11 30.14 1021 10 16.0934 0 0
6:52 am 06:52 Cloudy 66 18.9 59 15 78 78 S 9 15 30.14 1021 10 16.0934 0 0
7:52 am 07:52 Cloudy 67 19.4 59 15 76 76 S 8 13 30.14 1021 10 16.0934 0 0
8:52 am 08:52 Cloudy 68 20 60 15.6 76 76 S 10 17 30.14 1021 10 16.0934 0 0
9:52 am 09:52 Cloudy 68 20 59 15 73 73 S 12 19 30.14 1021 10 16.0934 0 0
10:52 am 10:52 Cloudy 69 20.6 60 15.6 73 73 S 15 24 30.14 1021 10 16.0934 0 0
11:52 am 11:52 Cloudy 70 21.1 60 15.6 71 71 S 14 22 30.13 1020 10 16.0934 0 0
12:21 pm 12:21 Cloudy 69 20.6 59 15 70 70 S 14 22 30.12 1020 10 16.0934 0 0
12:28 pm 12:28 Cloudy 70 21 61 16 73 73 S 14 22 30.12 1020 10 16.0934 0 0
12:52 pm 12:52 Cloudy 69 20.6 60 15.6 73 73 S 14 22 30.12 1020 10 16.0934 0 0
1:25 pm 13:25 Cloudy 69 20.6 60 15.6 73 73 S 16 26 30.12 1020 10 16.0934 0 0
1:52 pm 13:52 Cloudy 70 21.1 60 15.6 71 71 S 14 22 30.1 1019 10 16.0934 0 0
2:45 pm 14:45 Cloudy 70 21.1 61 16.1 73 73 SSE 13 20 30.06 1018 10 16.0934 0 0
2:52 pm 14:52 Cloudy 70 21.1 61 16.1 73 73 S 13 20 30.07 1018 10 16.0934 0 0
3:36 pm 15:36 Cloudy 70 21 61 16 73 73 S 13 20 30.06 1018 10 16.0934 0 0
3:39 pm 15:39 Cloudy 70 21.1 60 15.6 71 71 S 15 24 30.06 1018 10 16.0934 0 0
3:41 pm 15:41 Cloudy 70 21.1 60 15.6 71 71 S 13 20 30.06 1018 10 16.0934 0 0
3:43 pm 15:43 Cloudy 70 21.1 60 15.6 71 71 S 14 22 30.06 1018 10 16.0934 0 0
3:52 pm 15:52 Cloudy 70 21.1 60 15.6 71 71 S 12 19 30.04 1017 10 16.0934 0 0
4:52 pm 16:52 Cloudy 70 21.1 58 14.4 66 66 SSE 9 15 30.02 1017 10 16.0934 0 0
5:52 pm 17:52 Cloudy 70 21.1 59 15 68 68 SSE 12 19 30.01 1016 10 16.0934 0 0
6:52 pm 18:52 Cloudy 70 21.1 59 15 68 68 S 9 15 30.03 1017 10 16.0934 0 0
7:52 pm 19:52 Cloudy 70 21.1 60 15.6 71 71 SSE 9 15 30.03 1017 10 16.0934 0 0
8:52 pm 20:52 Cloudy 70 21.1 60 15.6 71 71 S 14 22 30.02 1017 10 16.0934 0 0
9:05 pm 21:05 Cloudy with Heavy Rain 67 19.4 63 17.2 87 87 S 13 20 30.03 1017 2.5 4.02335 0.08 2.032
9:09 pm 21:09 Cloudy with Light Rain 67 19.4 63 17.2 87 87 S 10 17 30.03 1017 3 4.82802 0.09 2.286
9:26 pm 21:26 Mostly Cloudy with Light Rain 66 19 64 18 94 94 S 13 20 30 1016 10 16.0934 0 0
9:52 pm 21:52 Mostly Cloudy with Light Rain 67 19.4 63 17.2 87 87 S 12 19 29.99 1016 10 16.0934 0.12 3.048
10:52 pm 22:52 Cloudy 66 18.9 64 17.8 93 93 SSW 8 13 29.99 1016 10 16.0934 0 0.0254
11:22 pm 23:22 Cloudy 66 19 64 18 94 94 SW 7 11 30 1016 10 16.0934 0 0
11:52 pm 23:52 Cloudy 66 18.9 65 18.3 96 96 SSW 9 15 29.97 1015 10 16.0934 0 0

Powered by AerisWeather